Flight Track Log - Related Links

Times and Time Zones

All times are in EDT time to prevent confusion due to time zone crossing. See the AWE402 flight status page for this flight to view local times or setup timezone preferences in your user account.

Time Position Orientation Groundspeed Altitude Reporting Facility
EDT Latitude Longitude Course Direction KTS MPH feet Rate Location/Type
Tue 06:06:57 PM 39.8774 -104.6334 90° East 198 228 5,600  Level FlightAware ADS-B
Tue 06:07:12 PM 39.8776 -104.6134 89° East 196 226 6,200 2,600 Climbing FlightAware ADS-B
Tue 06:07:27 PM 39.8775 -104.5983 97° East 192 221 6,900 2,455 Climbing FlightAware ADS-B
Tue 06:07:34 PM 39.8762 -104.5888 105° East 191 220 7,100 783 Climbing FlightAware ADS-B
Tue 06:07:50 PM 39.8715 -104.5739 114° Southeast 210 242 7,200 923 Climbing FlightAware ADS-B (EGHH / BOH)
Tue 06:08:13 PM 39.8632 -104.5497 115° Southeast 231 266 7,700 1,421 Climbing FlightAware ADS-B
Tue 06:08:28 PM 39.8534 -104.5223 115° Southeast 248 285 8,100 1,548 Climbing FlightAware ADS-B
Tue 06:08:44 PM 39.8456 -104.4998 114° Southeast 261 300 8,500 1,500 Climbing FlightAware ADS-B
Tue 06:09:00 PM 39.8389 -104.4797 113° Southeast 280 322 8,900 1,588 Climbing FlightAware ADS-B (EGHH / BOH)
Tue 06:09:18 PM 39.8288 -104.4492 114° Southeast 290 334 9,400 2,082 Climbing FlightAware ADS-B
Tue 06:09:49 PM 39.8125 -104.3997 107° East 302 348 10,600 2,000 Climbing FlightAware ADS-B
Tue 06:10:03 PM 39.8096 -104.3740 93° East 318 366 10,900 1,091 Climbing FlightAware ADS-B (EGHH / BOH)
Tue 06:10:33 PM 39.8066 -104.3127 98° East 347 399 11,400 1,279 Climbing FlightAware ADS-B
Tue 06:11:04 PM 39.7992 -104.2465 98° East 366 421 12,200 2,118 Climbing FlightAware ADS-B
Tue 06:11:41 PM 39.7901 -104.1665 98° East 369 425 13,800 2,480 Climbing FlightAware ADS-B (EGHH / BOH)
Tue 06:12:19 PM 39.7820 -104.0935 98° East 372 428 15,300 2,206 Climbing FlightAware ADS-B
Tue 06:12:49 PM 39.7736 -104.0143 98° East 382 440 16,300 2,066 Climbing FlightAware ADS-B
Tue 06:13:20 PM 39.7660 -103.9428 98° East 390 449 17,400 2,190 Climbing FlightAware ADS-B
Tue 06:13:52 PM 39.7580 -103.8742 100° East 394 453 18,600 2,095 Climbing FlightAware ADS-B (EGHH / BOH)
Tue 06:14:23 PM 39.7476 -103.7934 99° East 398 458 19,600 1,629 Climbing FlightAware ADS-B (EGHH / BOH)
Tue 06:15:02 PM 39.7387 -103.7004 96° East 406 467 20,500 1,333 Climbing FlightAware ADS-B
Tue 06:15:35 PM 39.7327 -103.6237 96° East 416 479 21,200 1,143 Climbing FlightAware ADS-B
Tue 06:16:05 PM 39.7268 -103.5496 96° East 428 493 21,700 1,040 Climbing FlightAware ADS-B
Tue 06:16:50 PM 39.7176 -103.4347 96° East 442 509 22,500 988 Climbing FlightAware ADS-B
Tue 06:17:30 PM 39.7083 -103.3200 96° East 457 526 23,100 947 Climbing FlightAware ADS-B (EGHH / BOH)
Tue 06:18:06 PM 39.7010 -103.2299 96° East 469 540 23,700 1,151 Climbing FlightAware ADS-B
Tue 06:18:43 PM 39.6916 -103.1161 96° East 481 554 24,500 1,083 Climbing FlightAware ADS-B (EGHH / BOH)
Tue 06:19:18 PM 39.6829 -103.0123 96° East 489 563 25,000 896 Climbing FlightAware ADS-B (EGHH / BOH)
Tue 06:19:50 PM 39.6752 -102.9204 96° East 495 570 25,500 1,083 Climbing FlightAware ADS-B
Tue 06:20:30 PM 39.6651 -102.8008 96° East 498 573 26,300 1,371 Climbing FlightAware ADS-B
Tue 06:21:00 PM 39.6583 -102.7225 96° East 499 574 27,100 1,455 Climbing FlightAware ADS-B (EGHH / BOH)
Tue 06:21:36 PM 39.6482 -102.6069 96° East 499 574 27,900 1,364 Climbing FlightAware ADS-B
Tue 06:22:06 PM 39.6404 -102.5177 96° East 496 571 28,600 1,475 Climbing FlightAware ADS-B
Tue 06:22:37 PM 39.6321 -102.4250 97° East 493 567 29,400 1,297 Climbing FlightAware ADS-B
Tue 06:23:20 PM 39.6209 -102.3002 97° East 493 567 30,200 1,040 Climbing FlightAware ADS-B
Tue 06:23:52 PM 39.6131 -102.2148 97° East 494 568 30,700 640 Climbing FlightAware ADS-B
Tue 06:24:35 PM 39.6021 -102.0946 97° East 506 582 31,000 237 Climbing FlightAware ADS-B
Tue 06:25:08 PM 39.5911 -101.9751 96° East 519 597 31,000  Level FlightAware ADS-B (EGHH / BOH)
Tue 06:25:52 PM 39.5815 -101.8497 96° East 532 612 31,000  Level FlightAware ADS-B
Tue 06:26:36 PM 39.5696 -101.7013 96° East 533 613 31,000  Level FlightAware ADS-B
Tue 06:27:15 PM 39.5594 -101.5743 96° East 527 606 31,000 1,938 Level FlightAware ADS-B (EGHH / BOH)
Tue 06:27:41 PM 39.5529 -101.4945 99° East 524 603 33,100  Climbing FlightAware ADS-B (EGHH / BOH)
Tue 06:28:21 PM 39.5359 -101.3735 104° East 525 604 31,000 -1,750 Descending FlightAware ADS-B
Tue 06:28:53 PM 39.5136 -101.2745 107° East 525 604 31,000  Level FlightAware ADS-B
Tue 06:29:37 PM 39.4828 -101.1451 107° East 525 604 31,000  Level FlightAware ADS-B
Tue 06:30:08 PM 39.4613 -101.0549 107° East 524 603 31,000  Level FlightAware ADS-B
Tue 06:30:52 PM 39.4321 -100.9339 107° East 525 604 31,000  Level FlightAware ADS-B
Tue 06:31:42 PM 39.3918 -100.7670 107° East 525 604 31,000  Level FlightAware ADS-B
Tue 06:32:53 PM 39.3412 -100.5596 108° East 523 602 31,000  Level FlightAware ADS-B
Tue 06:33:26 PM 39.3203 -100.4764 108° East 523 602 31,000 821 Level Denver Center
Tue 06:34:28 PM 39.2703 -100.2742 108° East 529 609 32,300 968 Climbing Denver Center
Tue 06:35:30 PM 39.2369 -100.1014 104° East 524 603 33,000 339 Climbing Denver Center
Tue 06:36:32 PM 39.2053 -99.9167 102° East 525 604 33,000  Level Denver Center
Tue 06:37:34 PM 39.1672 -99.7058 103° East 536 617 33,000  Level Denver Center
Tue 06:38:36 PM 39.1367 -99.5314 103° East 527 606 33,000  Level Denver Center
Tue 06:39:38 PM 39.1003 -99.3306 103° East 519 597 33,000  Level Denver Center
Tue 06:40:40 PM 39.0683 -99.1550 103° East 524 603 33,000  Level Denver Center
Tue 06:41:42 PM 39.0306 -98.9497 103° East 526 605 33,000  Level Denver Center
Tue 06:46:54 PM 38.8532 -98.0089 104° East 519 597 33,000  Level FlightAware ADS-B
Tue 06:47:24 PM 38.8358 -97.9191 104° East 519 597 33,000  Level FlightAware ADS-B
Tue 06:47:55 PM 38.8179 -97.8267 104° East 521 600 33,000  Level FlightAware ADS-B
Tue 06:48:28 PM 38.7981 -97.7261 104° East 520 598 33,000 92 Level FlightAware ADS-B
Tue 06:49:00 PM 38.7796 -97.6315 104° East 520 598 33,100 97 Climbing FlightAware ADS-B
Tue 06:49:30 PM 38.7620 -97.5420 104° East 519 597 33,100 -95 Level FlightAware ADS-B
Tue 06:50:03 PM 38.7425 -97.4440 104° East 518 596 33,000 -91 Descending FlightAware ADS-B
Tue 06:50:36 PM 38.7233 -97.3472 104° East 517 595 33,000  Level FlightAware ADS-B
Tue 06:51:06 PM 38.7051 -97.2562 104° East 517 595 33,000  Level FlightAware ADS-B
Tue 06:51:37 PM 38.6865 -97.1642 104° East 518 596 33,000  Level FlightAware ADS-B
Tue 06:52:08 PM 38.6683 -97.0739 105° East 519 597 33,000  Level FlightAware ADS-B
Tue 06:52:38 PM 38.6501 -96.9841 104° East 520 598 33,000  Level FlightAware ADS-B
Tue 06:53:09 PM 38.6313 -96.8918 105° East 521 600 33,000  Level FlightAware ADS-B
Tue 06:53:41 PM 38.6119 -96.7971 105° East 521 600 33,000  Level FlightAware ADS-B
Tue 06:54:13 PM 38.5926 -96.7030 105° East 521 600 33,000 95 Level FlightAware ADS-B
Tue 06:54:44 PM 38.5736 -96.6112 105° East 519 597 33,100 97 Climbing FlightAware ADS-B
Tue 06:55:15 PM 38.5546 -96.5196 105° East 517 595 33,100 -97 Level FlightAware ADS-B
Tue 06:55:46 PM 38.5353 -96.4266 105° East 514 592 33,000 -95 Descending FlightAware ADS-B
Tue 06:56:18 PM 38.5160 -96.3339 105° East 512 589 33,000  Level FlightAware ADS-B
Tue 06:56:49 PM 38.4971 -96.2439 105° East 513 590 33,000  Level FlightAware ADS-B
Tue 06:57:19 PM 38.4784 -96.1561 105° East 512 589 33,000  Level FlightAware ADS-B
Tue 06:57:50 PM 38.4595 -96.0667 105° East 513 590 33,000  Level FlightAware ADS-B
Tue 06:58:20 PM 38.4407 -95.9781 105° East 513 590 33,000  Level FlightAware ADS-B
Tue 06:58:51 PM 38.4212 -95.8868 105° East 514 592 33,000  Level FlightAware ADS-B
Tue 06:59:22 PM 38.4022 -95.7981 105° East 516 594 33,000  Level FlightAware ADS-B
Tue 06:59:54 PM 38.3817 -95.7027 105° East 517 595 33,000  Level FlightAware ADS-B
Tue 07:00:25 PM 38.3618 -95.6109 105° East 517 595 33,000  Level FlightAware ADS-B
Tue 07:01:04 PM 38.3375 -95.4989 105° East 518 596 33,000  Level FlightAware ADS-B
Tue 07:02:34 PM 38.2839 -95.2569 105° East 517 595 33,000  Level Memphis Center
Tue 07:03:36 PM 38.2444 -95.0797 106° East 518 596 33,000  Level Memphis Center
Tue 07:04:35 PM 38.2039 -94.9000 106° East 517 595 33,000  Level Kansas City Center
Tue 07:05:37 PM 38.1628 -94.7139 106° East 511 588 33,000  Level Kansas City Center
Tue 07:06:39 PM 38.1236 -94.5400 106° East 505 581 33,000  Level Kansas City Center
Tue 07:07:41 PM 38.0828 -94.3631 106° East 515 593 33,000  Level Kansas City Center
Tue 07:08:43 PM 38.0431 -94.1875 106° East 516 594 33,000  Level Kansas City Center
Tue 07:09:45 PM 38.0003 -94.0092 107° East 528 608 33,000 48 Level Kansas City Center
Tue 07:10:47 PM 37.9544 -93.7972 105° East 521 600 33,100  Climbing Kansas City Center
Tue 07:11:49 PM 37.9156 -93.6211 106° East 520 598 33,000 -48 Descending Kansas City Center
Tue 07:12:51 PM 37.8764 -93.4456 106° East 519 597 33,000  Level Kansas City Center
Tue 07:13:53 PM 37.8372 -93.2714 106° East 518 596 33,000  Level Kansas City Center
Tue 07:14:55 PM 37.7978 -93.0953 106° East 518 596 33,000  Level Kansas City Center
Tue 07:15:57 PM 37.7592 -92.9217 106° East 517 595 33,000  Level Kansas City Center
Tue 07:16:59 PM 37.7167 -92.7322 106° East 516 594 33,000  Level Kansas City Center
Tue 07:18:01 PM 37.6758 -92.5578 106° East 517 595 33,000  Level Kansas City Center
Tue 07:19:03 PM 37.6308 -92.3672 107° East 518 596 33,000  Level Kansas City Center
Tue 07:20:05 PM 37.5908 -92.1950 106° East 518 596 33,000  Level Kansas City Center
Tue 07:21:07 PM 37.5492 -92.0206 107° East 519 597 33,000  Level Kansas City Center
Tue 07:22:09 PM 37.4983 -91.8108 107° East 520 598 33,000  Level Kansas City Center
Tue 07:23:11 PM 37.4575 -91.6375 106° East 520 598 33,000  Level Kansas City Center
Tue 07:24:13 PM 37.4156 -91.4636 107° East 520 598 33,000  Level Kansas City Center
Tue 07:25:16 PM 37.3725 -91.2906 107° East 519 597 33,000  Level Kansas City Center
Tue 07:26:18 PM 37.3308 -91.1200 107° East 516 594 33,000  Level Kansas City Center
Tue 07:27:20 PM 37.2869 -90.9472 108° East 515 593 33,000  Level Kansas City Center
Tue 07:28:22 PM 37.2403 -90.7611 107° East 516 594 33,000  Level Kansas City Center
Tue 07:29:24 PM 37.1994 -90.5908 107° East 516 594 33,000  Level Kansas City Center
Tue 07:30:26 PM 37.1553 -90.4178 108° East 517 595 33,000  Level Kansas City Center
Tue 07:31:28 PM 37.1025 -90.2114 108° East 517 595 33,000  Level Kansas City Center
Tue 07:32:34 PM 37.0578 -90.0392 108° East 518 596 33,000  Level Memphis Center
Tue 07:37:43 PM 36.8233 -89.1418 108° East 510 587 33,000  Level FlightAware ADS-B
Tue 07:38:47 PM 36.7806 -88.9822 108° East 509 586 33,000  Level Memphis Center
Tue 07:39:49 PM 36.7350 -88.8136 109° East 509 586 33,000  Level Memphis Center
Tue 07:40:51 PM 36.6900 -88.6453 108° East 509 586 33,000  Level Memphis Center
Tue 07:41:53 PM 36.6439 -88.4792 109° East 509 586 33,000  Level Memphis Center
Tue 07:42:55 PM 36.5994 -88.3133 108° East 507 583 33,000  Level Memphis Center
Tue 07:43:57 PM 36.5247 -88.1281 117° Southeast 506 582 33,000 -484 Level Memphis Center
Tue 07:44:59 PM 36.4428 -87.9864 126° Southeast 502 578 32,000 -968 Descending Memphis Center
Tue 07:46:01 PM 36.3603 -87.8447 126° Southeast 502 578 31,000 -484 Descending Memphis Center
Tue 07:47:03 PM 36.2767 -87.7008 126° Southeast 507 583 31,000  Level Memphis Center
Tue 07:52:32 PM 36.0889 -86.8556 71° East 489 563 31,000  Level FlightAware ADS-B (KMDQ)
Tue 07:53:12 PM 36.1128 -86.7528 77° East 492 566 31,000  Level FlightAware ADS-B (KMDQ)
Tue 07:53:52 PM 36.1258 -86.6360 86° East 496 571 31,000  Level FlightAware ADS-B (KMDQ)
Tue 07:54:32 PM 36.1249 -86.5241 94° East 499 574 31,000  Level FlightAware ADS-B (KMDQ)
Tue 07:55:29 PM 36.1140 -86.3743 95° East 500 575 31,000  Level FlightAware ADS-B (KMDQ)
Tue 08:00:33 PM 36.0496 -85.5386 96° East 494 568 31,000  Level FlightAware ADS-B (KMDQ)
Tue 08:01:13 PM 36.0383 -85.4001 96° East 492 566 31,000  Level FlightAware ADS-B (KMDQ)
Tue 08:01:53 PM 36.0295 -85.2931 96° East 493 567 31,000  Level FlightAware ADS-B (KMDQ)
Tue 08:02:33 PM 36.0197 -85.1765 96° East 492 566 31,000  Level FlightAware ADS-B (KMDQ)
Tue 08:05:10 PM 35.9824 -84.7425 96° East 492 566 31,000  Level FlightAware ADS-B (KMDQ)
Tue 08:05:40 PM 35.9744 -84.6489 96° East 493 567 31,000  Level Memphis Center
Tue 08:06:22 PM 35.9656 -84.5519 96° East 488 562 31,000  Level Atlanta Center
Tue 08:07:22 PM 35.9494 -84.3850 97° East 483 556 31,000  Level Atlanta Center
Tue 08:08:22 PM 35.9331 -84.2183 97° East 483 556 31,000  Level Atlanta Center
Tue 08:09:22 PM 35.9186 -84.0489 96° East 483 556 31,000  Level Atlanta Center
Tue 08:10:22 PM 35.9039 -83.8797 96° East 483 556 31,000  Level Atlanta Center
Tue 08:11:22 PM 35.9014 -83.7131 91° East 483 556 31,000 -750 Level Atlanta Center
Tue 08:12:22 PM 35.8986 -83.5339 91° East 483 556 29,500 -1,000 Descending Atlanta Center
Tue 08:13:22 PM 35.8936 -83.3697 92° East 473 544 29,000 -250 Descending Atlanta Center
Tue 08:14:22 PM 35.8908 -83.2417 91° East 473 544 29,000  Level Atlanta Center
Tue 08:15:22 PM 35.8875 -83.0622 91° East 478 550 29,000 -350 Level Atlanta Center
Tue 08:16:22 PM 35.8819 -82.9008 92° East 473 544 28,300 -850 Descending Atlanta Center
Tue 08:17:22 PM 35.8783 -82.7419 92° East 473 544 27,300 -1,000 Descending Atlanta Center
Tue 08:18:22 PM 35.8744 -82.5908 92° East 450 518 26,300 -1,500 Descending Atlanta Center
Tue 08:19:22 PM 35.8706 -82.4447 92° East 432 497 24,300 -2,000 Descending Atlanta Center
Tue 08:20:22 PM 35.8667 -82.3014 92° East 427 491 22,300 -2,200 Descending Atlanta Center
Tue 08:21:22 PM 35.8603 -82.1478 93° East 413 475 19,900 -2,100 Descending Atlanta Center
Tue 08:22:22 PM 35.8081 -82.0286 118° Southeast 389 448 18,100 -1,650 Descending Atlanta Center
Tue 08:23:22 PM 35.7561 -81.9172 120° Southeast 384 442 16,600 -1,650 Descending Atlanta Center
Tue 08:24:22 PM 35.7083 -81.8111 119° Southeast 366 421 14,800 -1,800 Descending Atlanta Center
Tue 08:24:52 PM 35.6825 -81.7531 119° Southeast 354 407 13,900 -1,700 Descending Atlanta Center
Tue 08:25:22 PM 35.6606 -81.7050 119° Southeast 361 415 13,100 -1,275 Descending Atlanta Center
Tue 08:26:12 PM 35.6214 -81.6219 120° Southeast 333 383 12,200 -1,000 Descending Atlanta Center
Tue 08:26:22 PM 35.6169 -81.6067 110° East 353 406 12,100 -222 Descending Atlanta Center
Tue 08:27:06 PM 35.5761 -81.5417 128° Southeast 309 356 12,000 -200 Descending Atlanta Center
Tue 08:27:22 PM 35.5653 -81.5242 127° Southeast 330 380 11,900 -986 Descending Atlanta Center
Tue 08:28:19 PM 35.5136 -81.4492 130° Southeast 307 353 10,800 -1,075 Descending Atlanta Center
Tue 08:29:08 PM 35.4703 -81.3764 126° Southeast 306 352 10,000 -762 Descending Atlanta Center
Tue 08:29:22 PM 35.4617 -81.3667 137° Southeast 310 357 10,000  Level Atlanta Center
Tue 08:30:09 PM 35.4164 -81.2992 129° Southeast 305 351 10,000  Level Atlanta Center
Tue 08:30:22 PM 35.4078 -81.2867 130° Southeast 310 357 10,000  Level Atlanta Center
Tue 08:31:22 PM 35.3539 -81.2072 130° Southeast 305 351 10,000  Level Atlanta Center
Tue 08:32:22 PM 35.3000 -81.1325 131° Southeast 305 351 10,000 -517 Level Atlanta Center
Tue 08:33:18 PM 35.2464 -81.0736 138° Southeast 244 281 9,000 -1,282 Descending Atlanta Center
Tue 08:34:19 PM 35.1836 -81.0681 176° South 225 259 7,500 -1,748 Descending Atlanta Center
Tue 08:35:25 PM 35.1106 -81.0631 177° South 227 261 5,300 -1,559 Descending Atlanta Center
Tue 08:36:26 PM 35.0436 -81.0553 175° South 244 281 4,200 -639 Descending Atlanta Center
Tue 08:37:27 PM 34.9886 -81.0244 155° Southeast 237 273 4,000 -103 Descending Atlanta Center
Tue 08:38:22 PM 34.9936 -80.9708 83° East 175 201 4,000 -246 Level Atlanta Center
Tue 08:39:29 PM 35.0389 -80.9539 17° North 136 157 3,500 -492 Descending Atlanta Center
Tue 08:40:24 PM 35.0744 -80.9578 355° North 136 157 3,000 -545 Descending Atlanta Center
Tue 08:41:19 PM 35.1081 -80.9592 358° North 136 157 2,500 -672 Descending Atlanta Center
Tue 08:42:20 PM 35.1478 -80.9653 353° North 136 157 1,700 -744 Descending Atlanta Center
Tue 08:43:20 PM 35.1853 -80.9664 359° North 133 153 1,000 -700 Descending Atlanta Center
Tue 08:45:00 PM 35.2000 -80.9333 39° Northeast  Level FlightAware Approximate

Login

Don't have an account? Register now (free) for customized features, flight alerts, and more!